Location: Kitchener-Waterloo
(43.4500°N, 80.5000°W)
Time: 11:24:03
(UTC-04:00)

ISS - All Passes

Search period start: 23 October 2017 00:00
Search period end: 02 November 2017 00:00
Orbit: 400 x 408 km, 51.6° (Epoch: 24 October)

Date Brightness Start Highest point End Pass type
(mag) Time Alt. Az. Time Alt. Az. Time Alt. Az.
23 Oct - 09:58:12 10° SW 10:01:25 63° SE 10:04:38 10° ENE daylight
23 Oct - 11:35:13 10° W 11:38:05 27° NNW 11:40:57 10° NE daylight
23 Oct - 13:12:51 10° NW 13:15:18 19° N 13:17:44 10° NE daylight
23 Oct - 14:49:22 10° NW 14:52:26 36° NNE 14:55:29 10° E daylight
23 Oct - 16:25:51 10° WNW 16:28:55 37° SW 16:31:57 10° SSE daylight
24 Oct - 09:06:12 10° SSW 09:09:09 33° SE 09:12:08 10° ENE daylight
24 Oct - 10:42:31 10° W 10:45:36 38° NNW 10:48:41 10° NE daylight
24 Oct - 12:20:15 10° NW 12:22:42 19° N 12:25:09 10° NE daylight
24 Oct - 13:57:05 10° NW 13:59:55 26° NNE 14:02:45 10° ENE daylight
24 Oct - 15:33:22 10° WNW 15:36:38 70° SW 15:39:53 10° SE daylight
25 Oct - 08:14:38 10° S 08:16:58 18° SE 08:19:18 10° E daylight
25 Oct - 09:49:56 10° WSW 09:53:09 60° NNW 09:56:24 10° NE daylight
25 Oct - 11:27:32 10° WNW 11:30:05 21° N 11:32:41 10° NE daylight
25 Oct - 13:04:44 10° NW 13:07:21 22° N 13:09:58 10° ENE daylight
25 Oct - 14:41:01 10° NW 14:44:16 66° NNE 14:47:31 10° ESE daylight
25 Oct - 16:18:14 10° W 16:20:25 17° SW 16:22:36 10° S daylight
26 Oct - 08:57:31 10° SW 09:00:46 78° SE 09:04:01 10° ENE daylight
26 Oct - 10:34:44 10° WNW 10:37:31 25° NNW 10:40:18 10° NE daylight
26 Oct - 12:12:17 10° NW 12:14:45 19° N 12:17:13 10° NE daylight
26 Oct - 13:48:42 10° NW 13:51:50 41° NNE 13:54:56 10° E daylight
26 Oct - 15:25:19 10° WNW 15:28:13 30° SW 15:31:07 10° SSE daylight
27 Oct - 08:05:22 10° SSW 08:08:27 41° SE 08:11:32 10° ENE daylight
27 Oct - 09:41:58 10° W 09:44:58 33° NNW 09:47:59 10° NE daylight
27 Oct - 11:19:41 10° NW 11:22:06 19° N 11:24:32 10° NE daylight
27 Oct - 12:56:24 10° NW 12:59:18 29° NNE 13:02:13 10° E daylight
27 Oct - 14:32:44 10° WNW 14:35:56 56° SW 14:39:08 10° SE daylight
28 Oct - 07:13:35 10° S 07:16:11 22° SE 07:18:48 10° E visible
28 Oct - 08:49:17 10° WSW 08:52:28 51° NNW 08:55:40 10° NE daylight
28 Oct - 10:26:57 10° WNW 10:29:28 20° N 10:31:59 10° NE daylight
28 Oct - 12:04:02 10° NW 12:06:43 23° NNE 12:09:24 10° ENE daylight
28 Oct - 13:40:17 10° NW 13:43:33 80° NNE 13:46:49 10° ESE daylight
28 Oct - 15:17:54 10° W 15:19:37 14° SW 15:21:20 10° SSW daylight
29 Oct - 06:22:36 10° SSE 06:24:00 12° SE 06:25:24 10° ESE visible
29 Oct - 07:56:46 10° WSW 08:00:00 86° NW 08:03:17 10° ENE daylight
29 Oct - 09:34:08 10° WNW 09:36:50 23° NNW 09:39:32 10° NE daylight
29 Oct - 11:11:35 10° NW 11:14:05 20° N 11:16:34 10° ENE daylight
29 Oct - 12:47:55 10° NW 12:51:06 47° NNE 12:54:16 10° ESE daylight
29 Oct - 14:24:41 10° W 14:27:25 24° SW 14:30:08 10° SSE daylight
30 Oct - 07:04:28 10° SW 07:07:38 51° SE 07:10:49 10° ENE visible
30 Oct - 08:41:17 10° W 08:44:13 30° NNW 08:47:10 10° NE daylight
30 Oct - 10:18:59 10° NW 10:21:24 19° N 10:23:49 10° NE daylight
30 Oct - 11:55:35 10° NW 11:58:34 32° NNE 12:01:33 10° E daylight
30 Oct - 13:31:59 10° WNW 13:35:06 45° SW 13:38:15 10° SE daylight
31 Oct - 06:12:30 10° SSW 06:15:19 27° SE 06:18:08 10° ENE visible
31 Oct - 07:48:32 10° W 07:51:40 43° NNW 07:54:48 10° NE daylight
31 Oct - 09:26:15 10° NW 09:28:43 19° N 09:31:11 10° NE daylight
31 Oct - 11:03:12 10° NW 11:05:57 24° NNE 11:08:42 10° ENE daylight
31 Oct - 12:39:27 10° WNW 12:42:44 85° SSW 12:45:59 10° SE daylight
31 Oct - 14:17:46 10° WSW 14:18:42 11° SW 14:19:38 10° SSW daylight
01 Nov - 05:21:05 10° S 05:23:03 15° SE 05:25:01 10° E visible
01 Nov - 06:55:55 10° WSW 06:59:10 72° NNW 07:02:25 10° NE visible
01 Nov - 08:33:24 10° WNW 08:36:03 22° NNW 08:38:41 10° NE daylight
01 Nov - 10:10:44 10° NW 10:13:17 21° N 10:15:50 10° ENE daylight
01 Nov - 11:47:02 10° NW 11:50:15 55° NNE 11:53:28 10° ESE daylight
01 Nov - 13:23:59 10° W 13:26:29 20° SW 13:28:57 10° S daylight
